Regional Weather Roundup
Issued by NWS

Home | Current Version | Previous Version | Graphics & Text | Print | Product List | Glossary Off
Versions: 1 2 3 4 5 6 7 8 9 10 11 12 13 14 15 16 17 18 19 20 21 22 23 24 25 26 27 28 29 30 31 32 33 34 35 36 37 38 39 40 41 42 43 44 45 46 47 48 49 50

000
ASUS44 KFWD 291215
RWRTX
NORTH TEXAS HOURLY WEATHER ROUNDUP
NATIONAL WEATHER SERVICE FORT WORTH TX
700 AM CDT FRI AUG 29 2014

NOTE: "FAIR" INDICATES FEW OR NO CLOUDS BELOW 12,000 FEET WITH NO
SIGNIFICANT WEATHER AND/OR OBSTRUCTIONS TO VISIBILITY.

TXZ118-119-291300-
DALLAS/FORT WORTH METROPLEX

CITY           SKY/WX    TMP DP  RH WIND       PRES   REMARKS
DFW AIRPORT    CLOUDY    71  68  90 E3        29.89F
6HR MIN TEMP:  71; 6HR MAX TEMP:  83; 6HR PCP:  0.40;

DALLAS LOVE    CLOUDY    72  68  87 CALM      29.90F
6HR MIN TEMP:  72; 6HR MAX TEMP:  82; 6HR PCP: TRACE;

FTW MEACHAM    LGT RAIN  71  69  93 E8        29.88F
6HR MIN TEMP:  70; 6HR MAX TEMP:  84; 6HR PCP:  0.18;

DAL-EXECUTIVE  LGT RAIN  71  68  90 N7        29.90F
6HR MIN TEMP:  71; 6HR MAX TEMP:  82; 6HR PCP:  0.06;

FTW-ALLIANCE   LGT RAIN  70  69  97 E3        29.88F
6HR MIN TEMP:  68; 6HR MAX TEMP:  82; 6HR PCP:  0.69;

FTW-NAS-JRB    RAIN      73  67  81 E5        29.94F
6HR MIN TEMP:  73; 6HR MAX TEMP:  86; 6HR PCP:  0.07;

FTW-SPINKS     MOCLDY    70  68  94 E9        29.89F
GRAND PRAIRIE  PTCLDY    72  70  94 N3        29.93F
ADDISON        MOCLDY    72  66  83 E9        29.89F
MESQUITE       CLOUDY    75  64  69 N6        29.92F
LANCASTER      MOCLDY    70  66  88 NW3       29.92F
6HR MIN TEMP:  70; 6HR MAX TEMP:  78; 6HR PCP:  0.04;

$$

TXZ091>094-102>105-117-120-121-131>134-291300-
NORTH CENTRAL TEXAS

CITY           SKY/WX    TMP DP  RH WIND       PRES   REMARKS
SHRMAN/DENISON CLOUDY    71  66  87 CALM      29.91F
6HR MIN TEMP:  69; 6HR MAX TEMP:  77; 6HR PCP:  0.14;

GAINESVILLE    DRIZZLE   68  67  96 E5        29.93F
6HR MIN TEMP:  67; 6HR MAX TEMP:  71; 6HR PCP:  0.71;

BOWIE          CLOUDY    68  68  98 CALM      29.93S
6HR MIN TEMP:  66; 6HR MAX TEMP:  71; 6HR PCP:  0.92;

BRIDGEPORT     CLOUDY    69  69 100 CALM      29.94R
6HR MIN TEMP:  67; 6HR MAX TEMP:  70;

DECATUR        CLOUDY    69  68  98 E3        29.93S
6HR MIN TEMP:  67; 6HR MAX TEMP:  69; 6HR PCP:  0.76;

DENTON         LGT RAIN  71  67  87 SE8       29.89F
6HR MIN TEMP:  69; 6HR MAX TEMP:  75; 6HR PCP:  0.36;

MCKINNEY       CLOUDY    72  66  81 N5        29.91F
6HR MIN TEMP:  72; 6HR MAX TEMP:  81; 6HR PCP: TRACE;

GREENVILLE     TSTM      73  72  94 SW13      29.93R
ROCKWALL       CLOUDY    74  66  75 NE3       29.92R THUNDER
6HR MIN TEMP:  74; 6HR MAX TEMP:  80;

TERRELL        CLOUDY    76  75  97 S10       29.93R
6HR MIN TEMP:  76; 6HR MAX TEMP:  80; 6HR PCP:  0.84;

WAXAHACHIE     CLOUDY    69  67  93 N5        29.93F
6HR MIN TEMP:  69; 6HR MAX TEMP:  78; 6HR PCP:  0.06;

CLEBURNE       RAIN      70  70 100 E8        29.91F
GRANBURY       LGT RAIN  72  68  89 S3        29.92S
6HR MIN TEMP:  71; 6HR MAX TEMP:  83; 6HR PCP:  0.06;

$$

TXZ083>090-098>101-113>116-127>130-139>142-154-155-291300-
WESTERN NORTH TEXAS

CITY           SKY/WX    TMP DP  RH WIND       PRES   REMARKS
WICHITA FALLS  CLOUDY    69  67  93 SE5       29.92R
6HR MIN TEMP:  69; 6HR MAX TEMP:  71; 6HR PCP:  0.05;

WF-KICKAPOO    CLOUDY    70  69  95 SW6       29.93R
6HR MIN TEMP:  69; 6HR MAX TEMP:  71;

VERNON         PTCLDY    69  66  90 S3        29.94R
6HR MIN TEMP:  68; 6HR MAX TEMP: 100;

ABILENE        MOCLDY    70  67  90 SE12      29.93R
6HR MIN TEMP:  69; 6HR MAX TEMP:  73; 6HR PCP:  0.05;

ABILENE-DYESS  MOCLDY    71  68  91 SE10      29.92R
6HR MIN TEMP:  69; 6HR MAX TEMP:  71; 6HR PCP: TRACE;

BRECKENRIDGE   CLOUDY    71  69  94 SE5       29.94R
6HR MIN TEMP:  70; 6HR MAX TEMP:  71;

GRAHAM         CLOUDY    69  67  93 CALM      29.94R
6HR MIN TEMP:  68; 6HR MAX TEMP:  70;

MINERAL WELLS  CLOUDY    69  68  96 SE9       29.90F
6HR MIN TEMP:  68; 6HR MAX TEMP:  75; 6HR PCP:  1.92;

STEPHENVILLE   CLOUDY    69  66  92 CALM      29.98R
6HR MIN TEMP:  68; 6HR MAX TEMP:  81; 6HR PCP:  1.05;

COMANCHE       LGT RAIN  68  67  98 SE7       29.94F
6HR MIN TEMP:  68; 6HR MAX TEMP:  81; 6HR PCP:  0.06;

BROWNWOOD      CLOUDY    70  68  94 E5        29.95R
COLEMAN        CLOUDY    71  67  88 CALM      29.95S
6HR MIN TEMP:  69; 6HR MAX TEMP:  79; 6HR PCP:  0.34;

$$

TXZ143>147-156>162-174-175-291300-
CENTRAL TEXAS

CITY           SKY/WX    TMP DP  RH WIND       PRES   REMARKS
WACO           LGT RAIN  71  69  93 SW7       29.95R
6HR MIN TEMP:  70; 6HR MAX TEMP:  80; 6HR PCP:  0.49;

WACO-MCGREGOR  MOCLDY    70  63  78 W3        29.97R
6HR MIN TEMP:  70; 6HR MAX TEMP:  81; 6HR PCP:  0.94;

HILLSBORO      CLOUDY    70  67  89 SE3       29.91F
6HR MIN TEMP:  70; 6HR MAX TEMP:  80; 6HR PCP:  0.02;

CORSICANA      CLOUDY    77  72  84 S5        29.94R
6HR MIN TEMP:  77; 6HR MAX TEMP:  80;

MEXIA          CLOUDY    76  73  90 CALM      29.92S
6HR MIN TEMP:  75; 6HR MAX TEMP:  78;

HEARNE           N/A     74  72  91 CALM      29.92R
6HR MIN TEMP:  73; 6HR MAX TEMP:  77;

CAMERON        CLOUDY    76  72  85 N3        29.93R
6HR MIN TEMP:  76; 6HR MAX TEMP:  79;

TEMPLE         CLOUDY    72  63  73 N14       29.96R
6HR MIN TEMP:  72; 6HR MAX TEMP:  79;

KILLEEN        MOCLDY    72  64  78 NW12      29.96R
KILLEEN-SKYLRK CLOUDY    70  63  78 N8        29.96R
6HR MIN TEMP:  70; 6HR MAX TEMP:  81; 6HR PCP:  0.03;

FORT HOOD      CLOUDY    72  68  87 N8        29.96R
6HR MIN TEMP:  72; 6HR MAX TEMP:  82;

GATESVILLE     MOCLDY    70  68  94 CALM      29.96F
$$

TXZ095>097-106>112-122>126-135>138-148>153-164>167-291300-
EAST TEXAS

CITY           SKY/WX    TMP DP  RH WIND       PRES   REMARKS
PARIS          CLEAR     73  64  73 S6        29.93S
6HR MIN TEMP:  72; 6HR MAX TEMP:  75;

SULPHUR SPRNGS CLOUDY    78  72  81 S6        29.95R
6HR MIN TEMP:  77; 6HR MAX TEMP:  80;

CLARKSVILLE    PTCLDY    75  73  93 CALM      29.92F
6HR MIN TEMP:  74; 6HR MAX TEMP:  78;

MOUNT PLEASANT CLOUDY    75  73  94 CALM      29.94F
6HR MIN TEMP:  74; 6HR MAX TEMP:  76;

GILMER         MOCLDY    77  75  94 CALM      29.95R
MINEOLA        MOCLDY    75  75 100 CALM      29.94R
TYLER          CLOUDY    77  73  87 S3        29.93S
6HR MIN TEMP:  77; 6HR MAX TEMP:  79;

LONGVIEW       MOCLDY    77  72  84 SE6       29.94R
6HR MIN TEMP:  77; 6HR MAX TEMP:  79;

MARSHALL       CLOUDY    76  73  89 CALM      29.96S
6HR MIN TEMP:  76; 6HR MAX TEMP:  80;

ATHENS         CLOUDY    73  72  94 CALM      29.92R
PALESTINE      LGT RAIN  73  72  94 E6        29.94F
JACKSONVILLE   MOCLDY    76  74  93 S5        29.96S THUNDER
HENDERSON      MOCLDY    75  73  94 E3        29.95R
6HR MIN TEMP:  74; 6HR MAX TEMP:  76;

NACOGDOCHES    PTCLDY    72  70  94 CALM      29.95R
6HR MIN TEMP:  72; 6HR MAX TEMP:  75;

LUFKIN         MOCLDY    77  72  84 CALM      29.94R
6HR MIN TEMP:  76; 6HR MAX TEMP:  78;

$$

SUPPLEMENTAL OBSERVATIONS (CENTRAL)

CITY           SKY/WX    TMP DP  RH WIND       PRES   REMARKS
LAKE TEXOMA      N/A     70  66  88 S2          N/A
CADDO GRASSLND   N/A     72  66  83 W2          N/A
PAT MAYSE LAKE   N/A     73  68  83 W2          N/A
GREENVILLE       N/A     73  70  88 SW3G22      N/A
CEDAR HILL       N/A     70  66  88 NE3         N/A
PALESTINE        N/A     72  70  94 E2          N/A
LAKE LIMESTONE   N/A     73  70  88 E2          N/A
MCGREGOR         N/A     70  66  88 NE5G15      N/A
TEMPLE           N/A     75  66  73 NW3G13      N/A
$$

SUPPLEMENTAL OBSERVATIONS (WEST)

CITY           SKY/WX    TMP DP  RH WIND       PRES   REMARKS
POSSUM KINGDOM   N/A     70  66  88 S7          N/A
LBJ GRASSLAND    N/A     70  66  88 E3          N/A
GRANBURY         N/A     70  66  88 S5G17       N/A
COMANCHE         N/A     68  64  88 SE7G16      N/A


USA.gov is the U.S. government's official web portal to all federal, state and local government web resources and services.